EW9495 Weather Reports


time (UTC)temp
C
wind
direction
speed
KPH
gust
KPH
rain 1hr
cm
rain 24hr
cm
rain mn
cm
humidity
%
barometer
mb
20260503013059 -17 126 4.8 11.3 0.00 0.00 0.00 1004.1
20260503011619 -17 142 6.4 11.3 0.00 0.00 0.00 1004.1
20260503010058 -17 128 0.0 9.7 0.00 0.00 0.00 1004.3
20260503004555 -17 131 8.0 11.3 0.00 0.00 0.00 1004.4
20260503003054 -17 155 4.8 9.7 0.00 0.00 0.00 1004.6
20260503001554 -17 140 1.6 8.0 0.00 0.00 0.00 1004.8
20260503000104 -17 126 3.2 6.4 0.00 0.00 0.00 1004.9
20260502234602 -17 273 1.6 8.0 0.00 0.00 0.00 1005.1
20260502233052 -17 280 0.0 6.4 0.00 0.00 0.00 1005.2
20260502231552 -17 316 3.2 12.9 0.00 0.00 0.00 1005.4
20260502230052 -17 47 6.4 12.9 0.00 0.00 0.00 1005.5
20260502224551 -17 336 14.5 22.5 0.00 0.00 0.00 1005.5
20260502223051 -17 76 3.2 12.9 0.00 0.00 0.00 1005.8
20260502221602 -17 348 4.8 9.7 0.00 0.00 0.00 1005.9
20260502220058 -17 343 1.6 11.3 0.00 0.00 0.00 1006.2
20260502214545 -17 84 0.0 9.7 0.00 0.00 0.00 1006.3
20260502213042 -17 74 3.2 17.7 0.00 0.00 0.00 1006.6
20260502211539 -17 291 4.8 14.5 0.00 0.00 0.00 1006.7
20260502210033 -17 244 8.0 16.1 0.00 0.00 0.00 1006.7
20260502204527 -17 236 4.8 16.1 0.00 0.00 0.00 1006.9
20260502203022 -17 308 6.4 11.3 0.00 0.00 0.00 1006.9
20260502201517 -17 263 8.0 17.7 0.00 0.00 0.00 1007.1
20260502200013 -17 330 6.4 14.5 0.00 0.00 0.00 1007.5
20260502194508 -17 295 8.0 17.7 0.00 0.00 0.00 1007.7
20260502193004 -17 321 6.4 19.3 0.00 0.00 0.00 1007.9
20260502191604 -17 340 9.7 17.7 0.00 0.00 0.00 1008.0
20260502190059 -17 26 9.7 17.7 0.00 0.00 0.00 1008.3
20260502184551 -17 27 11.3 22.5 0.00 0.00 0.00 1008.3
20260502183049 -17 325 9.7 19.3 0.00 0.00 0.00 1008.3
20260502181544 -17 344 11.3 22.5 0.00 0.00 0.00 1008.4
20260502163018 -17 326 11.3 22.5 0.00 0.00 0.00 1008.1
20260502161510 -17 334 9.7 24.1 0.00 0.00 0.00 1008.0
20260502151607 -17 37 14.5 30.6 0.00 0.00 0.00 1007.7
20260502123003 -17 65 14.5 29.0 0.00 0.00 0.00 1007.0
20260502121559 -17 32 19.3 33.8 0.00 0.00 0.00 1006.9
20260502114551 -17 74 22.5 37.0 0.00 0.00 0.00 1006.3
20260502113052 -17 52 19.3 45.1 0.00 0.00 0.00 1006.2
20260502111546 -17 74 27.4 41.8 0.00 0.00 0.00 1005.9
20260502110038 -17 78 25.7 38.6 0.00 0.00 0.00 1006.5
20260502104532 -17 72 25.7 38.6 0.00 0.00 0.00 1005.7
20260502103028 -17 71 24.1 41.8 0.00 0.00 0.00 1005.5
20260502101525 -17 69 32.2 41.8 0.00 0.00 0.00 1005.2
20260502091505 -17 178 1.6 12.9 0.00 0.00 0.00 1004.5
20260502090116 -17 349 6.4 14.5 0.00 0.00 0.00 1004.3
20260502071529 -17 349 1.6 6.4 0.00 0.00 0.00 1004.0
20260502070038 -17 34 1.6 3.2 0.00 0.00 0.00 1004.1
20260502064520 -17 37 1.6 3.2 0.00 0.00 0.00 1004.1
20260502063032 -17 29 0.0 1.6 0.00 0.00 0.00 1004.1
20260502061512 -17 36 0.0 1.6 0.00 0.00 0.00 1004.1
20260502060008 -17 39 0.0 1.6 0.00 0.00 0.00 1004.2
20260502054519 -17 339 1.6 6.4 0.00 0.00 0.00 1004.1
20260502053007 -17 339 1.6 8.0 0.00 0.00 0.00 1004.2
20260502051508 -17 350 3.2 9.7 0.00 0.00 0.00 1004.3
20260502050008 -17 333 4.8 8.0 0.00 0.00 0.00 1004.3
20260502044506 -17 325 3.2 8.0 0.00 0.00 0.00 1004.4
20260502043005 -17 321 6.4 11.3 0.00 0.00 0.00 1004.2
20260502041504 -17 299 8.0 12.9 0.00 0.00 0.00 1004.1
20260502040004 -17 19 6.4 9.7 0.00 0.00 0.00 1003.8
20260502034504 -17 304 6.4 11.3 0.00 0.00 0.00 1003.9
20260502033004 -17 319 6.4 11.3 0.00 0.00 0.00 1003.7
20260502031503 -17 327 0.0 9.7 0.00 0.00 0.00 1003.6
20260502030003 -17 10 6.4 9.7 0.00 0.00 0.00 1003.3
20260502024502 -17 332 4.8 11.3 0.00 0.00 0.00 1003.3
20260502023002 -17 317 8.0 14.5 0.00 0.00 0.00 1003.1
20260502021601 -17 308 8.0 17.7 0.00 0.00 0.00 1002.9
20260502014559 -17 273 9.7 17.7 0.00 0.00 0.00 1002.8